Regional Weather Roundup
Issued by NWS

Home | Current Version | Previous Version | Text Only | Print | Product List | Glossary On
Versions: 1 2 3 4 5 6 7 8 9 10 11 12 13 14 15 16 17 18 19 20 21 22 23 24 25 26 27 28 29 30 31 32 33 34 35 36 37 38 39 40 41 42 43 44 45 46 47 48 49 50
000
ASUS43 KLSX 141959
RWRMO

WEATHER SUMMARY FOR MISSOURI
NATIONAL WEATHER SERVICE SPRINGFIELD MO
300 PM CDT SUN SEP 14 2014

NOTE: "FAIR" INDICATES FEW OR NO CLOUDS BELOW 12,000 FEET WITH NO
       SIGNIFICANT WEATHER AND/OR OBSTRUCTIONS TO VISIBILITY.
       CURRENT SKY AND/OR WEATHER CONDITIONS ARE NOT AVAILABLE FOR
       CHILLICOTHE AND FARMINGTON.

MOZ001>031-035>038-043-044-053-054-142100-
...NORTHERN AND WESTERN MISSOURI...

CITY           SKY/WX    TMP DP  RH WIND       PRES   REMARKS
KANSAS CTY INT MOSUNNY   71  54  54 S13       30.15F
KANSAS C DTWN  MOSUNNY   74  54  49 S10       30.15F
LEE`S SUMMIT   PTSUNNY   70  53  54 S7        30.17F
ST JOSEPH      SUNNY     72  52  49 SW9       30.15F
KIRKSVILLE     SUNNY     69  46  43 S6        30.20F

$$
MOZ066>068-077>081-088>096-101>105-142100-
...SOUTHWEST MISSOURI...

CITY           SKY/WX    TMP DP  RH WIND       PRES   REMARKS
SPRINGFIELD    SUNNY     73  50  44 S8        30.19F
JOPLIN         SUNNY     74  56  53 E7        30.17F

$$
MOZ032>034-039>042-045>050-055>058-069>072-142100-
...CENTRAL MISSOURI...

CITY           SKY/WX    TMP DP  RH WIND       PRES   REMARKS
COLUMBIA       MOSUNNY   70  50  49 S8        30.20F
JEFFERSON CITY CLOUDY    70  48  45 SW6       30.20F
ROLLA          CLOUDY    68  47  46 SE5       30.21F
SEDALIA        CLOUDY    70  53  54 S8        30.19F
OSAGE BEACH    CLOUDY    68  52  56 S6        30.21F

$$
MOZ051-052-059>065-142100-
...EAST CENTRAL MISSOURI...

CITY           SKY/WX    TMP DP  RH WIND       PRES   REMARKS
ST LOUIS INTL  MOSUNNY   70  44  39 CALM      30.23F
SPIRIT OF STL  SUNNY     69  46  43 NE3       30.21F
ST CHARLES     SUNNY     68  47  46 CALM      30.22F

$$
MOZ072>076-082>087-097>100-106>115-142100-
...SOUTH CENTRAL AND SOUTHEAST MISSOURI...

CITY           SKY/WX    TMP DP  RH WIND       PRES   REMARKS
CAPE GIRARDEAU SUNNY     71  48  43 NE6       30.22F
FARMINGTON     CLOUDY    68  45  42 CALM      30.24F
POPLAR BLUFF   SUNNY     72  46  39 VRB3      30.21F
WEST PLAINS    SUNNY     71  48  43 VRB7      30.23F

$$



USA.gov is the U.S. government's official web portal to all federal, state and local government web resources and services.